,,Stat5,,Stat1,,Stat2,,Stat3,,Stat4,,Wind1,,Wind1,
time,status,PA1M_AVG,status,PR1M_SUM,status,RH1M_AVG,status,SR1M_AVG,status,TA1M_AVG,status,W1dAve1m,status,W1sAve1m,
2000-04-01, 00:00:00,VALID,916.66,VALID,0,VALID,100,VALID,-0.101885,VALID,19.2755,VALID,246,VALID,0,
2000-04-01, 00:01:00,VALID,916.647,VALID,0,VALID,100,VALID,-0.101885,VALID,19.2656,VALID,247,VALID,0,
2000-04-01, 00:02:00,VALID,916.627,VALID,0,VALID,100,VALID,-0.101885,VALID,19.2557,VALID,268,VALID,0,
2000-04-01, 00:03:00,VALID,916.601,VALID,0,VALID,100,VALID,-0.101885,VALID,19.2494,VALID,303,VALID,0,
2000-04-01, 00:04:00,VALID,916.574,VALID,0,VALID,100,VALID,-0.0849042,VALID,19.2497,VALID,303,VALID,0,
2000-04-01, 00:05:00,VALID,916.548,VALID,0,VALID,100,VALID,-0.101885,VALID,19.2427,VALID,303,VALID,0,
2000-04-01, 00:06:00,VALID,916.503,VALID,0.2,VALID,100,VALID,0.0339617,VALID,19.2445,VALID,303,VALID,0,
2000-04-01, 00:07:00,VALID,916.47,VALID,0,VALID,100,VALID,0.0169808,VALID,19.2309,VALID,303,VALID,0,
2000-04-01, 00:08:00,VALID,916.445,VALID,0,VALID,100,VALID,0,VALID,19.2217,VALID,303,VALID,0,
2000-04-01, 00:09:00,VALID,916.417,VALID,0,VALID,100,VALID,0,VALID,19.2058,VALID,303,VALID,0,
2000-04-01, 00:10:00,VALID,916.397,VALID,0,VALID,100,VALID,0,VALID,19.2187,VALID,303,VALID,0,
2000-04-01, 00:11:00,VALID,916.358,VALID,0,VALID,100,VALID,-0.0169808,VALID,19.2256,VALID,307,VALID,0,
2000-04-01, 00:12:00,VALID,916.309,VALID,0,VALID,100,VALID,0,VALID,19.2251,VALID,337,VALID,0,
2000-04-01, 00:13:00,VALID,916.271,VALID,0,VALID,100,VALID,0.0169808,VALID,19.2316,VALID,75,VALID,0,
2000-04-01, 00:14:00,VALID,916.218,VALID,0,VALID,100,VALID,0,VALID,19.2415,VALID,96,VALID,0,
2000-04-01, 00:15:00,VALID,916.169,VALID,0,VALID,100,VALID,0,VALID,19.2577,VALID,97,VALID,0,
2000-04-01, 00:16:00,VALID,916.132,VALID,0,VALID,100,VALID,0.0169808,VALID,19.2604,VALID,96,VALID,0,
2000-04-01, 00:17:00,VALID,916.092,VALID,0,VALID,100,VALID,0.0169808,VALID,19.2512,VALID,86,VALID,0,
2000-04-01, 00:18:00,VALID,916.055,VALID,0,VALID,100,VALID,-0.0169808,VALID,19.1961,VALID,86,VALID,0,
2000-04-01, 00:19:00,VALID,916.028,VALID,0,VALID,100,VALID,0,VALID,19.1933,VALID,86,VALID,0,
2000-04-01, 00:20:00,VALID,916.008,VALID,0,VALID,100,VALID,0,VALID,19.1933,VALID,98,VALID,0,
2000-04-01, 00:21:00,VALID,915.98,VALID,0,VALID,100,VALID,-0.0339617,VALID,19.1804,VALID,90,VALID,0.191106,
2000-04-01, 00:22:00,VALID,915.957,VALID,0,VALID,100,VALID,0,VALID,19.1643,VALID,76,VALID,0.50803,
2000-04-01, 00:23:00,VALID,915.926,VALID,0,VALID,100,VALID,0,VALID,19.1123,VALID,71,VALID,0.0361842,
2000-04-01, 00:24:00,VALID,915.912,VALID,0,VALID,100,VALID,0,VALID,19.1093,VALID,79,VALID,0.00637336,
2000-04-01, 00:25:00,VALID,915.903,VALID,0,VALID,100,VALID,-0.0339617,VALID,19.1128,VALID,81,VALID,0.679287,
2000-04-01, 00:26:00,VALID,915.887,VALID,0.2,VALID,100,VALID,0,VALID,19.1156,VALID,69,VALID,0.582332,
2000-04-01, 00:27:00,VALID,915.886,VALID,0,VALID,100,VALID,0,VALID,19.0994,VALID,83,VALID,0.699609,
2000-04-01, 00:28:00,VALID,915.875,VALID,0,VALID,100,VALID,0,VALID,19.0927,VALID,80,VALID,0.707031,
2000-04-01, 00:29:00,VALID,915.879,VALID,0,VALID,100,VALID,0.0169808,VALID,19.0833,VALID,82,VALID,0.207332,
2000-04-01, 00:30:00,VALID,915.89,VALID,0.2,VALID,100,VALID,-0.0169808,VALID,19.0771,VALID,82,VALID,0,
2000-04-01, 00:31:00,VALID,915.9,VALID,0,VALID,100,VALID,-0.0169808,VALID,19.0925,VALID,82,VALID,0,
2000-04-01, 00:32:00,VALID,915.917,VALID,0,VALID,100,VALID,0,VALID,19.0997,VALID,82,VALID,0,
2000-04-01, 00:33:00,VALID,915.922,VALID,0.2,VALID,100,VALID,0.0169808,VALID,19.1091,VALID,63,VALID,0,
2000-04-01, 00:34:00,VALID,915.922,VALID,0,VALID,100,VALID,0,VALID,19.0989,VALID,300,VALID,0.232639,
2000-04-01, 00:35:00,VALID,915.916,VALID,0,VALID,100,VALID,0.0169808,VALID,19.1061,VALID,318,VALID,0.727179,
2000-04-01, 00:36:00,VALID,915.904,VALID,0,VALID,100,VALID,-0.0169808,VALID,19.093,VALID,321,VALID,0.561678,
2000-04-01, 00:37:00,VALID,915.911,VALID,0.2,VALID,100,VALID,0,VALID,19.0696,VALID,319,VALID,0.208333,
2000-04-01, 00:38:00,VALID,915.914,VALID,0,VALID,100,VALID,0.0169808,VALID,19.0766,VALID,313,VALID,0.545072,
2000-04-01, 00:39:00,VALID,915.92,VALID,0,VALID,100,VALID,0.0169808,VALID,19.0768,VALID,322,VALID,0.292383,
2000-04-01, 00:40:00,VALID,915.923,VALID,0,VALID,100,VALID,0.0169808,VALID,19.0927,VALID,316,VALID,0.0607639,
2000-04-01, 00:41:00,VALID,915.924,VALID,0,VALID,100,VALID,0,VALID,19.0925,VALID,305,VALID,0,
2000-04-01, 00:42:00,VALID,915.911,VALID,0.2,VALID,100,VALID,0.0339617,VALID,19.1056,VALID,303,VALID,0,
2000-04-01, 00:43:00,VALID,915.916,VALID,0,VALID,100,VALID,0.0169808,VALID,19.1248,VALID,259,VALID,0.057492,
2000-04-01, 00:44:00,VALID,915.916,VALID,0,VALID,100,VALID,0,VALID,19.1119,VALID,236,VALID,0,
2000-04-01, 00:45:00,VALID,915.919,VALID,0.2,VALID,100,VALID,0.0339617,VALID,19.122,VALID,225,VALID,0,
2000-04-01, 00:46:00,VALID,915.932,VALID,0,VALID,100,VALID,0.0339617,VALID,19.1052,VALID,216,VALID,0,
2000-04-01, 00:47:00,VALID,915.951,VALID,0,VALID,100,VALID,0,VALID,19.1153,VALID,224,VALID,0,
2000-04-01, 00:48:00,VALID,915.96,VALID,0,VALID,100,VALID,0,VALID,19.1156,VALID,227,VALID,0,
2000-04-01, 00:49:00,VALID,915.982,VALID,0.2,VALID,100,VALID,0,VALID,19.0927,VALID,225,VALID,0,
2000-04-01, 00:50:00,VALID,915.994,VALID,0,VALID,100,VALID,0,VALID,19.0865,VALID,219,VALID,0,
2000-04-01, 00:51:00,VALID,916.006,VALID,0.2,VALID,100,VALID,0.101885,VALID,19.095,VALID,234,VALID,0,
2000-04-01, 00:52:00,VALID,916.007,VALID,0,VALID,100,VALID,0.118866,VALID,19.0918,VALID,235,VALID,0,
2000-04-01, 00:53:00,VALID,916.017,VALID,0,VALID,100,VALID,0.101885,VALID,19.0888,VALID,236,VALID,0,
2000-04-01, 00:54:00,VALID,915.997,VALID,0,VALID,100,VALID,0.101885,VALID,19.0784,VALID,225,VALID,0,
2000-04-01, 00:55:00,VALID,915.996,VALID,0,VALID,100,VALID,0.101885,VALID,19.0652,VALID,223,VALID,0,
2000-04-01, 00:56:00,VALID,915.979,VALID,0,VALID,100,VALID,0.135847,VALID,19.0719,VALID,212,VALID,0,
2000-04-01, 00:57:00,VALID,915.972,VALID,0.2,VALID,100,VALID,0.101885,VALID,19.0818,VALID,209,VALID,0,
2000-04-01, 00:58:00,VALID,915.955,VALID,0,VALID,100,VALID,0.118866,VALID,19.0876,VALID,209,VALID,0,
2000-04-01, 00:59:00,VALID,915.926,VALID,0,VALID,100,VALID,0.118866,VALID,19.1203,VALID,194,VALID,0,
2000-04-01, 01:00:00,VALID,915.901,VALID,0,VALID,100,VALID,0.101885,VALID,19.1362,VALID,171,VALID,0,
2000-04-01, 01:01:00,VALID,915.867,VALID,0,VALID,100,VALID,0.101885,VALID,19.1489,VALID,122,VALID,0,
2000-04-01, 01:02:00,VALID,915.845,VALID,0,VALID,100,VALID,0.135847,VALID,19.1755,VALID,105,VALID,0,
2000-04-01, 01:03:00,VALID,915.824,VALID,0,VALID,100,VALID,0.101885,VALID,19.1817,VALID,105,VALID,0,
2000-04-01, 01:04:00,VALID,915.812,VALID,0,VALID,100,VALID,0.152827,VALID,19.1817,VALID,105,VALID,0,
2000-04-01, 01:05:00,VALID,915.799,VALID,0,VALID,100,VALID,0.135847,VALID,19.1849,VALID,105,VALID,0,
2000-04-01, 01:06:00,VALID,915.767,VALID,0,VALID,100,VALID,-0.0679233,VALID,19.1978,VALID,105,VALID,0,
2000-04-01, 01:07:00,VALID,915.73,VALID,0,VALID,100,VALID,-0.0679233,VALID,19.2169,VALID,105,VALID,0,
2000-04-01, 01:08:00,VALID,915.678,VALID,0,VALID,100,VALID,-0.0849042,VALID,19.2167,VALID,84,VALID,0,
2000-04-01, 01:09:00,VALID,915.625,VALID,0.2,VALID,100,VALID,-0.101885,VALID,19.1292,VALID,53,VALID,0,
2000-04-01, 01:10:00,VALID,915.579,VALID,0,VALID,100,VALID,-0.101885,VALID,19.0879,VALID,53,VALID,0,
2000-04-01, 01:11:00,VALID,915.537,VALID,0,VALID,100,VALID,-0.0679233,VALID,19.0584,VALID,53,VALID,0,
2000-04-01, 01:12:00,VALID,915.499,VALID,0,VALID,100,VALID,-0.101885,VALID,19.0653,VALID,77,VALID,0,
2000-04-01, 01:13:00,VALID,915.482,VALID,0,VALID,100,VALID,-0.101885,VALID,19.0753,VALID,113,VALID,0,
2000-04-01, 01:14:00,VALID,915.448,VALID,0,VALID,100,VALID,-0.101885,VALID,19.0882,VALID,100,VALID,0,
2000-04-01, 01:15:00,VALID,915.444,VALID,0,VALID,100,VALID,-0.101885,VALID,19.1078,VALID,99,VALID,0,
2000-04-01, 01:16:00,VALID,915.458,VALID,0,VALID,100,VALID,-0.101885,VALID,19.1135,VALID,99,VALID,0,
2000-04-01, 01:17:00,VALID,915.449,VALID,0,VALID,100,VALID,-0.101885,VALID,19.1173,VALID,99,VALID,0,
2000-04-01, 01:18:00,VALID,915.441,VALID,0,VALID,100,VALID,-0.118866,VALID,19.1073,VALID,94,VALID,0,
2000-04-01, 01:19:00,VALID,915.423,VALID,0,VALID,100,VALID,-0.101885,VALID,19.1076,VALID,317,VALID,0,
2000-04-01, 01:20:00,VALID,915.404,VALID,0,VALID,100,VALID,-0.101885,VALID,19.1009,VALID,309,VALID,0,
2000-04-01, 01:21:00,VALID,915.399,VALID,0,VALID,100,VALID,0,VALID,19.122,VALID,341,VALID,0,
2000-04-01, 01:22:00,VALID,915.392,VALID,0,VALID,100,VALID,0,VALID,19.161,VALID,96,VALID,0,
2000-04-01, 01:23:00,VALID,915.396,VALID,0,VALID,100,VALID,-0.0169808,VALID,19.2028,VALID,102,VALID,0,
2000-04-01, 01:24:00,VALID,915.398,VALID,0,VALID,100,VALID,0,VALID,19.2194,VALID,104,VALID,0,
2000-04-01, 01:25:00,VALID,915.395,VALID,0,VALID,100,VALID,0,VALID,19.2033,VALID,104,VALID,0,
2000-04-01, 01:26:00,VALID,915.375,VALID,0,VALID,100,VALID,0,VALID,19.2,VALID,104,VALID,0,
2000-04-01, 01:27:00,VALID,915.364,VALID,0,VALID,100,VALID,0,VALID,19.1931,VALID,104,VALID,0,
2000-04-01, 01:28:00,VALID,915.325,VALID,0,VALID,100,VALID,0,VALID,19.2318,VALID,104,VALID,0,
2000-04-01, 01:29:00,VALID,915.315,VALID,0,VALID,100,VALID,-0.0169808,VALID,19.245,VALID,99,VALID,0,
2000-04-01, 01:30:00,VALID,915.295,VALID,0,VALID,100,VALID,0,VALID,19.2582,VALID,100,VALID,0,
2000-04-01, 01:31:00,VALID,915.257,VALID,0,VALID,100,VALID,0,VALID,19.2351,VALID,101,VALID,0,
2000-04-01, 01:32:00,VALID,915.225,VALID,0,VALID,100,VALID,0,VALID,19.2222,VALID,101,VALID,0,
2000-04-01, 01:33:00,VALID,915.196,VALID,0,VALID,100,VALID,0,VALID,19.2356,VALID,101,VALID,0,
2000-04-01, 01:34:00,VALID,915.172,VALID,0,VALID,100,VALID,0,VALID,19.2318,VALID,101,VALID,0,
2000-04-01, 01:35:00,VALID,915.153,VALID,0,VALID,100,VALID,0,VALID,19.2159,VALID,110,VALID,0,
2000-04-01, 01:36:00,VALID,915.152,VALID,0,VALID,100,VALID,-0.0169808,VALID,19.2199,VALID,123,VALID,0,
2000-04-01, 01:37:00,VALID,915.167,VALID,0,VALID,100,VALID,-0.0169808,VALID,19.2129,VALID,91,VALID,0,
2000-04-01, 01:38:00,VALID,915.195,VALID,0,VALID,100,VALID,-0.0169808,VALID,19.1901,VALID,94,VALID,0,
2000-04-01, 01:39:00,VALID,915.215,VALID,0,VALID,100,VALID,0,VALID,19.2,VALID,95,VALID,0,
2000-04-01, 01:40:00,VALID,915.232,VALID,0,VALID,100,VALID,0,VALID,19.2162,VALID,95,VALID,0,
2000-04-01, 01:41:00,VALID,915.242,VALID,0,VALID,100,VALID,0.0169808,VALID,19.1899,VALID,95,VALID,0,
2000-04-01, 01:42:00,VALID,915.245,VALID,0,VALID,100,VALID,0,VALID,19.1809,VALID,136,VALID,0,
2000-04-01, 01:43:00,VALID,915.217,VALID,0,VALID,100,VALID,0,VALID,19.1742,VALID,258,VALID,0,
2000-04-01, 01:44:00,VALID,915.206,VALID,0,VALID,100,VALID,-0.0169808,VALID,19.1834,VALID,258,VALID,0,
2000-04-01, 01:45:00,VALID,915.202,VALID,0,VALID,100,VALID,-0.0169808,VALID,19.1901,VALID,258,VALID,0,
2000-04-01, 01:46:00,VALID,915.192,VALID,0,VALID,100,VALID,-0.0169808,VALID,19.1901,VALID,258,VALID,0,
2000-04-01, 01:47:00,VALID,915.206,VALID,0,VALID,100,VALID,0,VALID,19.1936,VALID,257,VALID,0,
2000-04-01, 01:48:00,VALID,915.211,VALID,0,VALID,100,VALID,0,VALID,19.1841,VALID,235,VALID,0,
2000-04-01, 01:49:00,VALID,915.205,VALID,0,VALID,100,VALID,0,VALID,19.1834,VALID,234,VALID,0,
2000-04-01, 01:50:00,VALID,915.202,VALID,0,VALID,100,VALID,-0.0339617,VALID,19.207,VALID,234,VALID,0,
2000-04-01, 01:51:00,VALID,915.173,VALID,0,VALID,100,VALID,0,VALID,19.1901,VALID,234,VALID,0,
2000-04-01, 01:52:00,VALID,915.134,VALID,0,VALID,100,VALID,0,VALID,19.168,VALID,234,VALID,0,
2000-04-01, 01:53:00,VALID,915.094,VALID,0,VALID,100,VALID,0,VALID,19.1416,VALID,240,VALID,0,
2000-04-01, 01:54:00,VALID,915.045,VALID,0,VALID,100,VALID,0,VALID,19.1223,VALID,278,VALID,0,
2000-04-01, 01:55:00,VALID,915.004,VALID,0,VALID,100,VALID,-0.0169808,VALID,19.1126,VALID,306,VALID,0,
2000-04-01, 01:56:00,VALID,914.956,VALID,0,VALID,100,VALID,0,VALID,19.0934,VALID,304,VALID,0,
2000-04-01, 01:57:00,VALID,914.933,VALID,0,VALID,100,VALID,0,VALID,19.084,VALID,304,VALID,0,
2000-04-01, 01:58:00,VALID,914.907,VALID,0,VALID,100,VALID,-0.0679233,VALID,19.0773,VALID,304,VALID,0,
2000-04-01, 01:59:00,VALID,914.896,VALID,0,VALID,100,VALID,-0.0169808,VALID,19.0939,VALID,304,VALID,0,
2000-04-01, 02:00:00,VALID,914.864,VALID,0,VALID,100,VALID,-0.0339617,VALID,19.0872,VALID,304,VALID,0,
2000-04-01, 02:01:00,VALID,914.839,VALID,0,VALID,100,VALID,0,VALID,19.0972,VALID,304,VALID,0,
2000-04-01, 02:02:00,VALID,914.812,VALID,0,VALID,100,VALID,0,VALID,19.0837,VALID,276,VALID,0,
2000-04-01, 02:03:00,VALID,914.788,VALID,0,VALID,100,VALID,0,VALID,19.0877,VALID,286,VALID,0,
2000-04-01, 02:04:00,VALID,914.768,VALID,0,VALID,100,VALID,-0.0169808,VALID,19.0644,VALID,287,VALID,0,
2000-04-01, 02:05:00,VALID,914.788,VALID,0,VALID,100,VALID,0,VALID,19.0847,VALID,270,VALID,0,
2000-04-01, 02:06:00,VALID,914.8,VALID,0,VALID,100,VALID,-0.0169808,VALID,19.0803,VALID,239,VALID,0.382401,
2000-04-01, 02:07:00,VALID,914.819,VALID,0,VALID,100,VALID,-0.0169808,VALID,19.0778,VALID,238,VALID,0.755409,
2000-04-01, 02:08:00,VALID,914.849,VALID,0,VALID,100,VALID,0,VALID,19.0646,VALID,234,VALID,0.639063,
2000-04-01, 02:09:00,VALID,914.868,VALID,0,VALID,100,VALID,-0.0169808,VALID,19.0616,VALID,227,VALID,0.775641,
2000-04-01, 02:10:00,VALID,914.883,VALID,0,VALID,100,VALID,0,VALID,19.045,VALID,217,VALID,0.973307,
2000-04-01, 02:11:00,VALID,914.876,VALID,0,VALID,100,VALID,-0.0169808,VALID,19.039,VALID,218,VALID,0.91139,
2000-04-01, 02:12:00,VALID,914.863,VALID,0,VALID,100,VALID,-0.0169808,VALID,19.0385,VALID,225,VALID,0.574013,
2000-04-01, 02:13:00,VALID,914.845,VALID,0,VALID,100,VALID,0,VALID,19.0385,VALID,220,VALID,1.19792,
2000-04-01, 02:14:00,VALID,914.804,VALID,0,VALID,100,VALID,-0.0169808,VALID,19.0321,VALID,230,VALID,0.669671,
2000-04-01, 02:15:00,VALID,914.765,VALID,0,VALID,100,VALID,-0.0339617,VALID,19.0425,VALID,221,VALID,1.04414,
2000-04-01, 02:16:00,VALID,914.723,VALID,0,VALID,100,VALID,-0.0679233,VALID,19.0196,VALID,207,VALID,0.984375,
2000-04-01, 02:17:00,VALID,914.699,VALID,0,VALID,100,VALID,0,VALID,19.0097,VALID,216,VALID,1.17929,
2000-04-01, 02:18:00,VALID,914.675,VALID,0,VALID,100,VALID,-0.0339617,VALID,18.9968,VALID,201,VALID,1.01953,
2000-04-01, 02:19:00,VALID,914.666,VALID,0,VALID,100,VALID,0,VALID,19,VALID,209,VALID,1.124,
2000-04-01, 02:20:00,VALID,914.673,VALID,0,VALID,100,VALID,0,VALID,18.9802,VALID,227,VALID,0.830859,
2000-04-01, 02:21:00,VALID,914.673,VALID,0,VALID,100,VALID,-0.0849042,VALID,18.9774,VALID,218,VALID,1.35777,
2000-04-01, 02:22:00,VALID,914.677,VALID,0,VALID,100,VALID,-0.0169808,VALID,18.9747,VALID,193,VALID,1.45573,
2000-04-01, 02:23:00,VALID,914.691,VALID,0,VALID,100,VALID,-0.0509425,VALID,18.955,VALID,191,VALID,1.4118,
2000-04-01, 02:24:00,VALID,914.684,VALID,0,VALID,100,VALID,-0.0169808,VALID,18.9324,VALID,197,VALID,1.51563,
2000-04-01, 02:25:00,VALID,914.672,VALID,0,VALID,100,VALID,-0.0339617,VALID,18.9322,VALID,210,VALID,1.14303,
2000-04-01, 02:26:00,VALID,914.669,VALID,0,VALID,100,VALID,0,VALID,18.9516,VALID,205,VALID,1.66326,
2000-04-01, 02:27:00,VALID,914.654,VALID,0,VALID,100,VALID,-0.0169808,VALID,18.9707,VALID,218,VALID,1.18906,
2000-04-01, 02:28:00,VALID,914.645,VALID,0,VALID,100,VALID,0,VALID,18.9906,VALID,199,VALID,1.34679,
2000-04-01, 02:29:00,VALID,914.633,VALID,0,VALID,100,VALID,0,VALID,18.9836,VALID,227,VALID,1.22696,
2000-04-01, 02:30:00,VALID,914.633,VALID,0,VALID,100,VALID,-0.0679233,VALID,18.9936,VALID,223,VALID,1.28536,
2000-04-01, 02:31:00,VALID,914.608,VALID,0,VALID,100,VALID,0,VALID,19.0037,VALID,226,VALID,1.8726,
2000-04-01, 02:32:00,VALID,914.592,VALID,0,VALID,100,VALID,-0.0339617,VALID,19.0037,VALID,224,VALID,1.05938,
2000-04-01, 02:33:00,VALID,914.56,VALID,0,VALID,100,VALID,0,VALID,18.9839,VALID,218,VALID,2.21915,
2000-04-01, 02:34:00,VALID,914.529,VALID,0,VALID,100,VALID,-0.0339617,VALID,18.9779,VALID,232,VALID,2.2921,
2000-04-01, 02:35:00,VALID,914.456,VALID,0,VALID,100,VALID,-0.0169808,VALID,18.9682,VALID,229,VALID,1.6616,
2000-04-01, 02:36:00,VALID,914.403,VALID,0,VALID,100,VALID,0,VALID,18.9608,VALID,209,VALID,1.79379,
2000-04-01, 02:37:00,VALID,914.342,VALID,0,VALID,100,VALID,0,VALID,18.9642,VALID,229,VALID,1.60757,
2000-04-01, 02:38:00,VALID,914.323,VALID,0,VALID,100,VALID,0,VALID,18.9541,VALID,229,VALID,1.5635,
2000-04-01, 02:39:00,VALID,914.316,VALID,0,VALID,100,VALID,-0.0169808,VALID,18.9345,VALID,219,VALID,1.3584,
2000-04-01, 02:40:00,VALID,914.304,VALID,0,VALID,100,VALID,0,VALID,18.9282,VALID,213,VALID,1.26107,
2000-04-01, 02:41:00,VALID,914.332,VALID,0,VALID,100,VALID,0.0339617,VALID,18.9282,VALID,228,VALID,1.13922,
2000-04-01, 02:42:00,VALID,914.347,VALID,0,VALID,100,VALID,0,VALID,18.919,VALID,185,VALID,1.46628,
2000-04-01, 02:43:00,VALID,914.369,VALID,0,VALID,100,VALID,0,VALID,18.9059,VALID,232,VALID,1.77244,
2000-04-01, 02:44:00,VALID,914.385,VALID,0,VALID,100,VALID,0,VALID,18.8798,VALID,218,VALID,1.30859,
2000-04-01, 02:45:00,VALID,914.396,VALID,0,VALID,100,VALID,0,VALID,18.8927,VALID,242,VALID,1.55549,
2000-04-01, 02:46:00,VALID,914.41,VALID,0,VALID,100,VALID,0.0169808,VALID,18.8964,VALID,240,VALID,1.63672,
2000-04-01, 02:47:00,VALID,914.401,VALID,0,VALID,100,VALID,0,VALID,18.8833,VALID,230,VALID,1.24938,
2000-04-01, 02:48:00,VALID,914.413,VALID,0,VALID,100,VALID,0,VALID,18.8932,VALID,276,VALID,0.985814,
2000-04-01, 02:49:00,VALID,914.426,VALID,0,VALID,100,VALID,0,VALID,18.8863,VALID,219,VALID,1.47997,
2000-04-01, 02:50:00,VALID,914.44,VALID,0,VALID,100,VALID,0,VALID,18.8863,VALID,249,VALID,1.51062,
2000-04-01, 02:51:00,VALID,914.451,VALID,0,VALID,100,VALID,0,VALID,18.883,VALID,196,VALID,1.77012,
2000-04-01, 02:52:00,VALID,914.438,VALID,0,VALID,100,VALID,0,VALID,18.8964,VALID,233,VALID,1.60807,
2000-04-01, 02:53:00,VALID,914.435,VALID,0,VALID,100,VALID,0,VALID,18.8964,VALID,214,VALID,1.76663,
2000-04-01, 02:54:00,VALID,914.405,VALID,0,VALID,100,VALID,0,VALID,18.8999,VALID,218,VALID,1.71813,
2000-04-01, 02:55:00,VALID,914.374,VALID,0,VALID,100,VALID,0,VALID,18.8895,VALID,216,VALID,2.04147,
2000-04-01, 02:56:00,VALID,914.328,VALID,0,VALID,100,VALID,0,VALID,18.8863,VALID,225,VALID,2.24453,
2000-04-01, 02:57:00,VALID,914.291,VALID,0,VALID,100,VALID,0,VALID,18.8962,VALID,229,VALID,1.21795,
2000-04-01, 02:58:00,VALID,914.294,VALID,0,VALID,100,VALID,0,VALID,18.9093,VALID,222,VALID,2.36306,
2000-04-01, 02:59:00,VALID,914.27,VALID,0,VALID,100,VALID,0.0169808,VALID,18.8959,VALID,219,VALID,2.32586,
2000-04-01, 03:00:00,VALID,914.261,VALID,0,VALID,100,VALID,0,VALID,18.9063,VALID,217,VALID,2.83388,
2000-04-01, 03:01:00,VALID,914.263,VALID,0,VALID,100,VALID,0,VALID,18.9031,VALID,225,VALID,2.49579,
2000-04-01, 03:02:00,VALID,914.246,VALID,0,VALID,100,VALID,0,VALID,18.8959,VALID,218,VALID,2.55008,
2000-04-01, 03:03:00,VALID,914.245,VALID,0,VALID,100,VALID,0,VALID,18.8959,VALID,224,VALID,1.70859,
2000-04-01, 03:04:00,VALID,914.245,VALID,0,VALID,100,VALID,0,VALID,18.89,VALID,208,VALID,2.51302,
2000-04-01, 03:05:00,VALID,914.224,VALID,0,VALID,100,VALID,0,VALID,18.8964,VALID,230,VALID,1.85998,
2000-04-01, 03:06:00,VALID,914.227,VALID,0,VALID,100,VALID,0,VALID,18.8999,VALID,220,VALID,1.26521,
2000-04-01, 03:07:00,VALID,914.221,VALID,0,VALID,100,VALID,0,VALID,18.8932,VALID,242,VALID,1.51502,
2000-04-01, 03:08:00,VALID,914.203,VALID,0,VALID,100,VALID,-0.0169808,VALID,18.8967,VALID,230,VALID,1.18418,
2000-04-01, 03:09:00,VALID,914.195,VALID,0,VALID,100,VALID,-0.0339617,VALID,18.9063,VALID,228,VALID,1.59515,
2000-04-01, 03:10:00,VALID,914.198,VALID,0,VALID,100,VALID,0,VALID,18.9034,VALID,232,VALID,1.56879,
2000-04-01, 03:11:00,VALID,914.174,VALID,0,VALID,100,VALID,0,VALID,18.893,VALID,243,VALID,1.33306,
2000-04-01, 03:12:00,VALID,914.156,VALID,0,VALID,100,VALID,-0.0169808,VALID,18.8932,VALID,230,VALID,1.25637,
2000-04-01, 03:13:00,VALID,914.132,VALID,0,VALID,100,VALID,0,VALID,18.9066,VALID,244,VALID,0.969351,
2000-04-01, 03:14:00,VALID,914.106,VALID,0,VALID,100,VALID,-0.0169808,VALID,18.8999,VALID,254,VALID,1.17167,
2000-04-01, 03:15:00,VALID,914.105,VALID,0,VALID,100,VALID,0,VALID,18.8971,VALID,240,VALID,0.541602,
2000-04-01, 03:16:00,VALID,914.095,VALID,0,VALID,100,VALID,0,VALID,18.887,VALID,258,VALID,1.10069,
2000-04-01, 03:17:00,VALID,914.102,VALID,0,VALID,100,VALID,-0.0169808,VALID,18.89,VALID,309,VALID,0.190304,
2000-04-01, 03:18:00,VALID,914.105,VALID,0,VALID,100,VALID,0,VALID,18.8997,VALID,241,VALID,0.0164474,
2000-04-01, 03:19:00,VALID,914.104,VALID,0,VALID,100,VALID,0,VALID,18.916,VALID,194,VALID,0.269832,
2000-04-01, 03:20:00,VALID,914.104,VALID,0,VALID,100,VALID,-0.0169808,VALID,18.916,VALID,209,VALID,0.693359,
2000-04-01, 03:21:00,VALID,914.103,VALID,0,VALID,100,VALID,0,VALID,18.9168,VALID,228,VALID,0.708133,
2000-04-01, 03:22:00,VALID,914.095,VALID,0,VALID,100,VALID,-0.0169808,VALID,18.9071,VALID,237,VALID,0.705729,
2000-04-01, 03:23:00,VALID,914.073,VALID,0,VALID,100,VALID,-0.0169808,VALID,18.8909,VALID,249,VALID,0.784951,
2000-04-01, 03:24:00,VALID,914.052,VALID,0,VALID,100,VALID,-0.0169808,VALID,18.8939,VALID,233,VALID,0.740543,
2000-04-01, 03:25:00,VALID,914.023,VALID,0,VALID,100,VALID,-0.0509425,VALID,18.8872,VALID,217,VALID,0.297476,
2000-04-01, 03:26:00,VALID,914.01,VALID,0,VALID,100,VALID,-0.0509425,VALID,18.8874,VALID,225,VALID,0.749599,
2000-04-01, 03:27:00,VALID,914.014,VALID,0,VALID,100,VALID,0,VALID,18.8706,VALID,227,VALID,0.826172,
2000-04-01, 03:28:00,VALID,914.009,VALID,0,VALID,100,VALID,-0.0509425,VALID,18.8939,VALID,221,VALID,1.1964,
2000-04-01, 03:29:00,VALID,914.016,VALID,0,VALID,100,VALID,-0.0509425,VALID,18.8907,VALID,215,VALID,1.40064,
2000-04-01, 03:30:00,VALID,914.002,VALID,0,VALID,100,VALID,-0.0679233,VALID,18.8713,VALID,222,VALID,0.982113,
2000-04-01, 03:31:00,VALID,913.995,VALID,0,VALID,100,VALID,-0.0509425,VALID,18.8745,VALID,229,VALID,0.93149,
2000-04-01, 03:32:00,VALID,913.969,VALID,0,VALID,100,VALID,0,VALID,18.8745,VALID,201,VALID,0.583203,
2000-04-01, 03:33:00,VALID,913.961,VALID,0,VALID,100,VALID,-0.0169808,VALID,18.881,VALID,209,VALID,0.384215,
2000-04-01, 03:34:00,VALID,913.926,VALID,0,VALID,100,VALID,-0.0169808,VALID,18.884,VALID,214,VALID,0.338325,
2000-04-01, 03:35:00,VALID,913.893,VALID,0,VALID,100,VALID,0,VALID,18.8812,VALID,213,VALID,0.515831,
2000-04-01, 03:36:00,VALID,913.86,VALID,0,VALID,100,VALID,-0.0169808,VALID,18.8713,VALID,224,VALID,0.760485,
2000-04-01, 03:37:00,VALID,913.818,VALID,0,VALID,100,VALID,-0.0169808,VALID,18.8651,VALID,222,VALID,1.07893,
2000-04-01, 03:38:00,VALID,913.773,VALID,0,VALID,100,VALID,-0.0339617,VALID,18.8519,VALID,227,VALID,1.12059,
2000-04-01, 03:39:00,VALID,913.749,VALID,0,VALID,100,VALID,-0.0339617,VALID,18.8549,VALID,229,VALID,0.754883,
2000-04-01, 03:40:00,VALID,913.722,VALID,0,VALID,100,VALID,-0.0679233,VALID,18.8584,VALID,214,VALID,0.505208,
2000-04-01, 03:41:00,VALID,913.718,VALID,0,VALID,100,VALID,0,VALID,18.8482,VALID,205,VALID,0.607973,
2000-04-01, 03:42:00,VALID,913.704,VALID,0,VALID,100,VALID,-0.0509425,VALID,18.8392,VALID,184,VALID,0.741365,
2000-04-01, 03:43:00,VALID,913.706,VALID,0,VALID,100,VALID,-0.0169808,VALID,18.8159,VALID,160,VALID,0.567708,
2000-04-01, 03:44:00,VALID,913.708,VALID,0,VALID,100,VALID,-0.0339617,VALID,18.8295,VALID,142,VALID,0.558984,
2000-04-01, 03:45:00,VALID,913.698,VALID,0,VALID,100,VALID,0,VALID,18.8295,VALID,133,VALID,0.735777,
2000-04-01, 03:46:00,VALID,913.681,VALID,0,VALID,100,VALID,-0.0339617,VALID,18.8127,VALID,112,VALID,0.815321,
2000-04-01, 03:47:00,VALID,913.648,VALID,0,VALID,100,VALID,-0.0339617,VALID,18.8069,VALID,108,VALID,1.12623,
2000-04-01, 03:48:00,VALID,913.632,VALID,0,VALID,100,VALID,-0.0169808,VALID,18.7813,VALID,106,VALID,1.12192,
2000-04-01, 03:49:00,VALID,913.599,VALID,0,VALID,100,VALID,-0.0679233,VALID,18.7553,VALID,113,VALID,1.0651,
2000-04-01, 03:50:00,VALID,913.573,VALID,0,VALID,100,VALID,-0.0679233,VALID,18.7421,VALID,108,VALID,0.888622,